2023/01/06 00:00:00,27.8, 1.1
2023/01/06 00:10:00,27.7, 1.1
2023/01/06 00:20:00,27.7, 1.1
2023/01/06 00:30:00,27.7, 1.0
2023/01/06 00:40:00,27.7, 1.1
2023/01/06 00:50:00,27.7, 1.2
2023/01/06 01:00:00,27.7, 1.1
2023/01/06 01:10:00,27.6, 1.3
2023/01/06 01:20:00,27.6, 1.3
2023/01/06 01:30:00,27.6, 1.0
2023/01/06 01:40:00,27.6, 1.2
2023/01/06 01:50:00,27.5, 1.1
2023/01/06 02:00:00,27.6, 1.1
2023/01/06 02:10:00,27.5, 1.2
2023/01/06 02:20:00,27.5, 1.0
2023/01/06 02:30:00,27.5, 1.1
2023/01/06 02:40:00,27.4, 1.4
2023/01/06 02:50:00,27.4, 1.2
2023/01/06 03:00:00,27.4, 1.3
2023/01/06 03:10:00,27.3, 1.1
2023/01/06 03:20:00,27.3, 1.2
2023/01/06 03:30:00,27.3, 1.1
2023/01/06 03:40:00,27.3, 1.1
2023/01/06 03:50:00,27.2, 1.2
2023/01/06 04:00:00,27.2, 1.2
2023/01/06 04:10:00,27.2, 1.2
2023/01/06 04:20:00,27.2, 1.1
2023/01/06 04:30:00,27.2, 1.4
2023/01/06 04:40:00,27.1, 1.2
2023/01/06 04:50:00,27.2, 1.2
2023/01/06 05:00:00,27.2, 1.1
2023/01/06 05:10:00,27.2, 1.0
2023/01/06 05:20:00,27.3, 1.0
2023/01/06 05:30:00,27.5, 1.2
2023/01/06 05:40:00,27.4, 1.4
2023/01/06 05:50:00,27.3, 1.1
2023/01/06 06:00:00,27.2, 1.0
2023/01/06 06:10:00,27.2, 1.2
2023/01/06 06:20:00,27.2, 1.3
2023/01/06 06:30:00,27.1, 1.2
2023/01/06 06:40:00,27.1, 1.0
2023/01/06 06:50:00,27.1, 1.2
2023/01/06 07:00:00,27.0, 1.2
2023/01/06 07:10:00,27.0, 1.3
2023/01/06 07:20:00,26.9, 1.1
2023/01/06 07:30:00,26.9, 1.0
2023/01/06 07:40:00,26.9, 1.3
2023/01/06 07:50:00,26.9, 1.4
2023/01/06 08:00:00,26.9, 1.4
2023/01/06 08:10:00,26.8, 1.7
2023/01/06 08:20:00,26.8, 1.7
2023/01/06 08:30:00,26.8, 1.8
2023/01/06 08:40:00,26.7, 1.9
2023/01/06 08:50:00,26.7, 2.1
2023/01/06 09:00:00,26.6, 2.1
2023/01/06 09:10:00,26.6, 2.5
2023/01/06 09:20:00,26.6, 2.4
2023/01/06 09:30:00,26.6, 2.3
2023/01/06 09:40:00,26.6, 2.7
2023/01/06 09:50:00,26.5, 2.7
2023/01/06 10:00:00,26.4, 3.3
2023/01/06 10:10:00,26.5, 3.4
2023/01/06 10:20:00,26.4, 3.3
2023/01/06 10:30:00,26.3, 3.5
2023/01/06 10:40:00,26.3, 3.7
2023/01/06 10:50:00,26.3, 4.4
2023/01/06 11:00:00,26.2, 4.6
2023/01/06 11:10:00,26.1, 5.6
2023/01/06 11:20:00,26.2, 5.4
2023/01/06 11:30:00,26.1, 5.6
2023/01/06 11:40:00,26.0, 5.6
2023/01/06 11:50:00,25.9, 6.1
2023/01/06 12:00:00,25.7, 6.7
2023/01/06 12:10:00,25.9, 5.7
2023/01/06 12:20:00,25.8, 5.9
2023/01/06 12:30:00,25.6, 6.4
2023/01/06 12:40:00,25.7, 5.9
2023/01/06 12:50:00,25.8, 5.8
2023/01/06 13:00:00,25.8, 5.7
2023/01/06 13:10:00,25.9, 5.5
2023/01/06 13:20:00,25.4, 7.7
2023/01/06 13:30:00,25.0, 8.7
2023/01/06 13:40:00,24.8, 9.5
2023/01/06 13:50:00,25.3, 8.3
2023/01/06 14:00:00,25.3, 7.0
2023/01/06 14:10:00,25.4, 5.5
2023/01/06 14:20:00,25.5, 5.3
2023/01/06 14:30:00,25.5, 5.0
2023/01/06 14:40:00,25.2, 5.5
2023/01/06 14:50:00,25.1, 7.0
2023/01/06 15:00:00,25.1, 6.9
2023/01/06 15:10:00,25.1, 7.4
2023/01/06 15:20:00,25.1, 6.0
2023/01/06 15:30:00,25.0, 5.1
2023/01/06 15:40:00,25.0, 4.7
2023/01/06 15:50:00,24.9, 4.2
2023/01/06 16:00:00,24.9, 3.7
2023/01/06 16:10:00,24.9, 3.5
2023/01/06 16:20:00,24.8, 3.4
2023/01/06 16:30:00,24.8, 3.4
2023/01/06 16:40:00,24.8, 3.0
2023/01/06 16:50:00,24.8, 2.6
2023/01/06 17:00:00,24.7, 2.1
2023/01/06 17:10:00,24.8, 2.0
2023/01/06 17:20:00,24.7, 1.7
2023/01/06 17:30:00,24.7, 1.5
2023/01/06 17:40:00,24.6, 1.3
2023/01/06 17:50:00,24.5, 0.9
2023/01/06 18:00:00,24.5, 0.7
2023/01/06 18:10:00,24.5, 0.7
2023/01/06 18:20:00,24.4, 0.6
2023/01/06 18:30:00,24.4, 0.6
2023/01/06 18:40:00,24.4, 0.7
2023/01/06 18:50:00,24.4, 0.6
2023/01/06 19:00:00,24.4, 0.7
2023/01/06 19:10:00,24.4, 0.2
2023/01/06 19:20:00,24.3, 0.6
2023/01/06 19:30:00,24.3, 0.4
2023/01/06 19:40:00,24.3, 0.3
2023/01/06 19:50:00,24.3, 0.3
2023/01/06 20:00:00,24.3, 0.6
2023/01/06 20:10:00,24.3, 0.5
2023/01/06 20:20:00,24.3, 0.2
2023/01/06 20:30:00,24.3, 0.3
2023/01/06 20:40:00,24.4, 0.4
2023/01/06 20:50:00,24.4, 0.3
2023/01/06 21:00:00,24.3, 0.3
2023/01/06 21:10:00,24.2, 0.2
2023/01/06 21:20:00,24.1, 0.0
2023/01/06 21:30:00,24.1, 0.0
2023/01/06 21:40:00,24.2, 0.0
2023/01/06 21:50:00,24.3, 0.1
2023/01/06 22:00:00,24.2,-0.1
2023/01/06 22:10:00,24.2, 0.1
2023/01/06 22:20:00,24.2, 0.2
2023/01/06 22:30:00,24.2,-0.1
2023/01/06 22:40:00,24.3,-0.1
2023/01/06 22:50:00,24.3, 0.1
2023/01/06 23:00:00,24.3,-0.2
2023/01/06 23:10:00,24.2,-0.2
2023/01/06 23:20:00,24.2,-0.1
2023/01/06 23:30:00,24.2,-0.3
2023/01/06 23:40:00,24.1,-0.2
2023/01/06 23:50:00,24.1,-0.2
